[[{"header":{"parameterUnit":"m.s-1","parameterCategory":1,"la1":30.2991,"la2":30.254,"lo1":-89.0895,"lo2":-89.0444,"dy":0.0017,"dx":0.0017,"nx":28,"ny":28,"refTime":"2023-03-29T21:00:00:Z","depth":0,"parameterNumber":2,"parameterNumberName":"U-component_of_WINDS"},"data":[0,0,0,0,0,0,0,0,0,0,0,0,0,0,0,0,0,0,0,0,0,0,0,0,0,0,0,0,0,0,0,0,0,0,0,0,0,0,0,0,0,0,0,0,0,0,0,0,0,0,0,0,0,0,0,0,0,0,-5.0617,-5.0619,0,-5.0732,-5.0733,-5.0734,-5.0703,-5.0701,-5.0699,-5.0697,-5.0814,-5.0819,-5.0824,0,0,0,0,0,0,0,0,0,0,0,0,0,-5.0372,-5.0377,-5.0617,-5.0619,-5.062,-5.0732,-5.0733,-5.0735,-5.0704,-5.0701,-5.0698,-5.0696,-5.0812,-5.0819,-5.0825,0,0,0,0,0,0,0,0,0,0,0,0,0,-5.0482,-5.0378,-5.0617,-5.0618,-5.0619,-5.0731,-5.0733,-5.0735,-5.0704,-5.0701,-5.0697,-5.0694,-5.081,-5.0818,-5.0826,-5.0944,0,0,-5.085,-5.0853,0,0,0,0,0,0,0,0,-5.0476,-5.0491,-5.0616,-5.0618,-5.062,-5.07,-5.069,-5.0805,-5.0705,-5.0672,-5.0696,-5.0692,-5.0779,-5.0789,-5.0818,-5.0949,-5.0954,-5.0851,-5.0856,-5.0859,-5.0861,0,0,0,0,0,0,0,-5.0468,-5.0486,-5.0663,-5.0618,-5.062,-5.0613,-5.0625,-5.0712,-5.0743,-5.0675,-5.0673,-5.0687,-5.0779,-5.0811,-5.0821,-5.0956,-5.085,-5.0858,-5.0862,-5.0866,-5.1189,-5.1193,0,0,0,0,0,0,-5.0459,-5.048,-5.0659,-5.0666,-5.0538,-5.062,-5.0633,-5.0678,-5.0742,-5.0749,-5.069,-5.0685,-5.0799,-5.0812,-5.0825,-5.0966,-5.0859,-5.0866,-5.0871,-5.1186,-5.119,-5.1194,0,0,0,0,0,0,-5.0454,-5.0476,-5.0654,-5.0572,-5.0595,-5.0628,-5.0678,-5.0682,-5.0713,-5.0754,-5.0759,-5.0716,-5.0797,-5.0814,-5.0914,-5.097,-5.087,-5.0877,-5.1181,-5.1187,-5.1192,-5.125,0,0,0,0,0,0,-5.0447,-5.0474,-5.0519,-5.0574,-5.0599,-5.0742,-5.0682,-5.0686,-5.0727,-5.0722,-5.078,-5.0786,-5.0795,-5.0903,-5.0922,-5.0979,-5.0883,-5.1176,-5.1184,-5.1191,-5.1243,-5.1257,-5.1269,0,0,0,0,0,-5.0439,-5.0531,-5.0521,-5.0543,-5.0656,-5.0745,-5.0759,-5.0768,-5.0731,-5.0777,-5.0803,-5.0784,-5.0961,-5.0913,-5.0935,-5.0995,-5.1173,-5.1182,-5.119,-5.1238,-5.1254,-5.1269,0,0,0,0,0,0,-5.0481,-5.0538,-5.0528,-5.064,-5.0688,-5.0739,-5.0797,-5.0786,-5.0845,-5.0838,-5.0846,-5.086,-5.0962,-5.0989,-5.0935,-5.1112,-5.1062,-5.1075,-5.109,-5.1107,-5.1119,-5.1109,-5.089,0,0,0,0,0,-5.0504,-5.0571,-5.0617,-5.0712,-5.0737,-5.0763,-5.0802,-5.0805,-5.0854,-5.0874,-5.0908,-5.0957,-5.1024,-5.1067,-5.1131,-5.1248,-5.126,-5.13,-5.1313,-5.1323,-5.1334,-5.1397,-5.1415,-5.1223,-5.1223,-5.1223,0,0,-5.0551,-5.059,-5.0632,-5.0722,-5.0759,-5.0828,-5.078,-5.0856,-5.0907,-5.0886,-5.0982,-5.1009,-5.1065,-5.1174,-5.1224,-5.1199,-5.139,-5.1334,-5.1342,-5.1347,-5.1408,-5.1426,-5.1442,-5.1229,-5.1228,-5.1227,0,0,-5.0671,-5.0708,-5.0791,-5.0829,-5.0886,-5.0904,-5.0924,-5.0977,-5.0994,-5.1091,-5.1077,-5.1139,-5.1254,-5.1293,-5.1329,-5.1466,-5.1451,-5.1487,-5.1553,-5.1614,-5.1629,-5.1642,-5.169,-5.1707,-5.1498,-5.1498,-5.1498,0,-5.0722,-5.0826,-5.0835,-5.0912,-5.0951,-5.0936,-5.1019,-5.1057,-5.1132,-5.116,-5.1132,-5.1275,-5.1312,-5.143,-5.1463,-5.1493,-5.1515,-5.1479,-5.1626,-5.164,-5.1652,-5.1697,-5.1715,-5.1502,-5.1502,-5.1501,-5.1501,0,-5.0885,-5.0957,-5.1017,-5.1089,-5.1136,-5.1216,-5.1237,-5.1284,-5.1284,-5.1304,-5.1403,-5.1447,-5.1518,-5.1547,-5.1548,-5.1666,-5.1648,-5.1624,-5.1572,-5.1674,-5.1717,-5.1734,-5.1508,-5.1506,-5.1505,-5.1504,0,0,-5.1032,-5.111,-5.1131,-5.1164,-5.1227,-5.1283,-5.1363,-5.1433,-5.1472,-5.1525,-5.1591,-5.169,-5.1667,-5.1708,-5.1713,-5.1767,-5.1871,-5.1735,-5.1737,-5.1757,-5.2002,-5.2018,-5.2038,-5.1863,-5.1866,-5.1869,-5.1996,0,-5.1156,-5.1295,-5.1306,-5.1432,-5.1498,-5.1486,-5.1555,-5.1601,-5.1623,-5.1683,-5.1708,-5.1776,-5.1742,-5.1766,-5.182,-5.1847,-5.192,-5.1838,-5.1923,-5.1926,-5.1906,-5.206,-5.2077,-5.2196,-5.2013,-5.2016,-5.2018,0,-5.1318,-5.1376,-5.1508,-5.1561,-5.1589,-5.1651,-5.1717,-5.1775,-5.1827,-5.1839,-5.1885,-5.1883,-5.1965,-5.1913,-5.2026,-5.197,-5.2006,-5.2025,-5.203,-5.2035,-5.1976,-5.2068,-5.2234,-5.225,-5.2045,-5.2043,-5.2041,0,-5.141,-5.1521,-5.1614,-5.1642,-5.1708,-5.1751,-5.178,-5.183,-5.1871,-5.1929,-5.1956,-5.2023,-5.2059,-5.2111,-5.2127,-5.2088,-5.2238,-5.2188,-5.225,-5.2249,-5.2279,-5.2276,-5.245,-5.2307,-5.2307,-5.2307,-5.2306,0,-5.1545,-5.1626,-5.1655,-5.1712,-5.1802,-5.1815,-5.1904,-5.1931,-5.1975,-5.2037,-5.2032,-5.209,-5.211,-5.2171,-5.2185,-5.2275,-5.2292,-5.2304,-5.2306,-5.2303,-5.2301,-5.2324,-5.2315,-5.2311,-5.231,-5.2309,-5.2309,0,-5.1661,-5.1684,-5.1784,-5.1838,-5.1854,-5.1918,-5.1964,-5.2019,-5.204,-5.2119,-5.2138,-5.2172,-5.2245,-5.2267,-5.2354,-5.2364,-5.2469,-5.2465,-5.245,-5.245,-5.2509,-5.2502,-5.2701,-5.2728,-5.257,-5.2571,-5.2572,0,-5.1744,-5.1806,-5.1866,-5.1907,-5.1938,-5.2005,-5.2047,-5.2063,-5.2108,-5.2173,-5.222,-5.2292,-5.2349,-5.2466,-5.2498,-5.2565,-5.2561,-5.2627,-5.2571,-5.2566,-5.256,-5.2554,-5.256,-5.2636,-5.2638,-5.2639,-5.264,0,-5.1889,-5.1897,-5.1958,-5.2024,-5.2075,-5.2128,-5.2178,-5.2212,-5.2236,-5.2286,-5.236,-5.2405,-5.2495,-5.2566,-5.2634,-5.2664,-5.2656,-5.2658,-5.2675,-5.2671,-5.2659,-5.2664,-5.2476,-5.2653,-5.2651,-5.2651,-5.265,-5.2649,-5.1989,-5.2043,-5.2094,-5.2162,-5.2202,-5.225,-5.2304,-5.2332,-5.2394,-5.2468,-5.2474,-5.2554,-5.2606,-5.2697,-5.2731,-5.2794,-5.2774,-5.28,-5.2806,-5.2811,-5.2815,-5.2652,-5.2806,-5.2806,-5.2806,-5.2806,-5.2805,0,-5.2131,-5.2164,-5.2227,-5.2297,-5.2351,-5.234,-5.2396,-5.2442,-5.2512,-5.2561,-5.2618,-5.2703,-5.2772,-5.2811,-5.288,-5.2923,-5.2921,-5.294,-5.2936,-5.2943,-5.2829,-5.2806,-5.2941,-5.2941,-5.2941,-5.2941,-5.2941,-5.294,-5.2211,-5.2301,-5.2316,-5.2426,-5.2459,-5.2536,-5.2569,-5.2613,-5.2652,-5.2747,-5.2804,-5.2829,-5.2874,-5.2947,-5.301,-5.3019,-5.3044,-5.3065,-5.3072,-5.2965,-5.2951,-5.2937,-5.2916,-5.3071,-5.3071,-5.318,-5.3181,-5.3182]},{"header":{"parameterUnit":"m.s-1","parameterCategory":1,"la1":30.2991,"la2":30.254,"lo1":-89.0895,"lo2":-89.0444,"dy":0.0017,"dx":0.0017,"nx":28,"ny":28,"refTime":"2023-03-29T21:00:00:Z","depth":0,"parameterNumber":3,"parameterNumberName":"V-component_of_WINDS"},"data":[0,0,0,0,0,0,0,0,0,0,0,0,0,0,0,0,0,0,0,0,0,0,0,0,0,0,0,0,0,0,0,0,0,0,0,0,0,0,0,0,0,0,0,0,0,0,0,0,0,0,0,0,0,0,0,0,0,0,4.0023,4.0023,0,4.006,4.006,4.0061,4.0015,4.0014,4.0012,4.001,4.0046,4.0048,4.005,0,0,0,0,0,0,0,0,0,0,0,0,0,3.9911,3.9913,4.0023,4.0023,4.0024,4.006,4.006,4.0061,4.0015,4.0013,4.0011,4.001,4.0045,4.0048,4.0051,0,0,0,0,0,0,0,0,0,0,0,0,0,3.9955,3.9914,4.0023,4.0005,4.0004,4.006,4.006,4.0061,4.0016,4.0013,4.0011,4.0009,4.0044,4.0047,4.0051,4.0124,0,0,4.0063,4.0064,0,0,0,0,0,0,0,0,3.9953,3.9959,4.0008,4.0007,4.0006,4.003,4.0034,4.0082,4.0017,4.0011,4.001,4.0007,4.0042,4.0046,4.0058,4.0126,4.0127,4.0063,4.0065,4.0067,4.0068,0,0,0,0,0,0,0,3.995,3.9957,4.0037,4.0008,4.0007,3.9995,3.9999,4.0043,4.004,4.0012,4.0008,4.0014,4.0041,4.0055,4.0059,4.0128,4.0063,4.0066,4.0068,4.007,4.0258,4.0261,0,0,0,0,0,0,3.9949,3.9955,4.0036,4.0038,3.9972,4.0,4.0003,4.0025,4.004,4.004,4.0016,4.0011,4.005,4.0055,4.006,4.0147,4.0067,4.007,4.0072,4.0256,4.0259,4.0262,0,0,0,0,0,0,3.9947,3.9957,4.0035,3.9996,4.0005,4.0004,4.0029,4.0027,4.004,4.0043,4.0042,4.003,4.0048,4.0055,4.0109,4.0148,4.0072,4.0075,4.0252,4.0257,4.0261,4.0321,0,0,0,0,0,0,3.9944,3.9956,3.9984,3.9997,4.0007,4.0084,4.0031,4.0029,4.0047,4.0042,4.0056,4.0056,4.0047,4.0104,4.0113,4.0151,4.0078,4.0249,4.0254,4.0259,4.0316,4.0327,4.0337,0,0,0,0,0,3.994,3.9999,3.9986,3.9996,4.0042,4.0086,4.0092,4.008,4.0051,4.0079,4.0081,4.0056,4.0142,4.011,4.0119,4.016,4.0246,4.0253,4.0259,4.0311,4.0325,4.0337,0,0,0,0,0,0,3.9989,4.0,3.9985,4.0051,4.0068,4.0078,4.0113,4.0095,4.012,4.0114,4.0098,4.0101,4.016,4.0165,4.0129,4.0232,4.0189,4.0198,4.0226,4.0239,4.0249,4.0246,4.0081,0,0,0,0,0,4.0007,4.0043,4.005,4.0107,4.0117,4.0114,4.0132,4.0122,4.0139,4.0145,4.0151,4.0168,4.0199,4.0219,4.0248,4.0317,4.032,4.035,4.036,4.0369,4.0376,4.0414,4.0427,4.0282,4.0282,4.0282,0,0,4.0046,4.0056,4.0079,4.0117,4.0129,4.0166,4.012,4.016,4.0186,4.0151,4.0203,4.0208,4.0226,4.0288,4.0316,4.0295,4.0417,4.0377,4.0383,4.0386,4.0421,4.0435,4.0447,4.0287,4.0286,4.0285,0,0,4.0134,4.0146,4.0194,4.0208,4.0228,4.0226,4.0238,4.0252,4.0254,4.0306,4.0281,4.0312,4.0366,4.038,4.0394,4.049,4.0468,4.05,4.0553,4.059,4.0602,4.0612,4.0646,4.0658,4.0507,4.0507,4.0507,0,4.0178,4.0233,4.0221,4.0264,4.0282,4.0253,4.0303,4.0316,4.0344,4.0356,4.0333,4.04,4.041,4.0476,4.05,4.0512,4.0525,4.0497,4.0601,4.0611,4.062,4.0653,4.0666,4.0511,4.051,4.051,4.051,0,4.0287,4.0325,4.0362,4.0391,4.0413,4.0459,4.0454,4.0478,4.0467,4.0467,4.0521,4.0533,4.0563,4.0578,4.0567,4.0643,4.0629,4.0604,4.056,4.0638,4.0668,4.0681,4.0516,4.0515,4.0514,4.0513,0,0,4.0405,4.0429,4.0443,4.0456,4.0477,4.0506,4.0551,4.0582,4.0603,4.0623,4.066,4.0707,4.0685,4.0701,4.0691,4.0724,4.08,4.0694,4.0694,4.0713,4.0884,4.0903,4.0917,4.0786,4.0788,4.079,4.0882,0,4.0493,4.0571,4.0564,4.0638,4.0673,4.0648,4.0687,4.0704,4.0707,4.0737,4.0739,4.0773,4.074,4.0749,4.0781,4.0784,4.0833,4.0777,4.0819,4.0821,4.0815,4.0933,4.0952,4.1039,4.0894,4.0896,4.0898,0,4.0606,4.0632,4.0711,4.0728,4.0742,4.0777,4.0806,4.0836,4.0855,4.0854,4.0873,4.0859,4.0904,4.0861,4.0922,4.0884,4.0902,4.0906,4.0909,4.0912,4.0863,4.0938,4.1066,4.1079,4.0916,4.0915,4.0913,0,4.0684,4.0739,4.0793,4.0806,4.0826,4.0852,4.0862,4.0878,4.0898,4.0924,4.0936,4.0966,4.0982,4.1006,4.1,4.0969,4.1063,4.1019,4.1063,4.1064,4.1083,4.1082,4.1215,4.1096,4.1095,4.1095,4.1095,0,4.0783,4.0832,4.0829,4.0862,4.0916,4.0907,4.0961,4.0967,4.0983,4.1017,4.0997,4.1029,4.1019,4.1051,4.1046,4.1098,4.1106,4.1106,4.1104,4.1108,4.1108,4.1118,4.1111,4.1099,4.1098,4.1097,4.1097,0,4.0878,4.0878,4.0936,4.0952,4.0957,4.0997,4.101,4.1041,4.1043,4.1086,4.1096,4.1098,4.1135,4.1131,4.1172,4.1169,4.1233,4.1224,4.1227,4.1225,4.1269,4.1265,4.1412,4.1431,4.1301,4.1302,4.1303,0,4.0941,4.0978,4.0999,4.1021,4.1033,4.1068,4.1089,4.1082,4.1105,4.113,4.1159,4.1194,4.1221,4.1281,4.1285,4.1317,4.1308,4.1358,4.1312,4.1315,4.1308,4.1306,4.131,4.1366,4.1368,4.1369,4.137,0,4.1052,4.1051,4.1082,4.1114,4.114,4.1165,4.1187,4.1206,4.1201,4.1228,4.1265,4.1287,4.133,4.1365,4.1395,4.1404,4.1386,4.1385,4.1396,4.14,4.14,4.14,4.1251,4.1381,4.138,4.1379,4.1378,4.1378,4.1133,4.1165,4.1185,4.1221,4.1238,4.126,4.129,4.1297,4.1329,4.1363,4.1357,4.14,4.1419,4.1458,4.1471,4.1504,4.1485,4.1503,4.1507,4.1511,4.1516,4.1396,4.1509,4.1509,4.1508,4.1508,4.1508,0,4.1242,4.1255,4.1288,4.1321,4.135,4.1333,4.1357,4.1382,4.142,4.144,4.1468,4.1512,4.1546,4.1555,4.1588,4.1613,4.1606,4.1622,4.1619,4.1622,4.153,4.1517,4.1627,4.1627,4.1627,4.1627,4.1627,4.1627,4.1303,4.1357,4.1359,4.1421,4.1433,4.1476,4.1491,4.1511,4.1527,4.1578,4.1607,4.1613,4.1628,4.1663,4.1694,4.1695,4.1708,4.1727,4.1726,4.164,4.1628,4.1617,4.1604,4.173,4.173,4.1814,4.1815,4.1816]}]]